Time,TemperatureF,DewpointF,PressureIn,WindDirection,WindDirectionDegrees,WindSpeedMPH,WindSpeedGustMPH,Humidity,HourlyPrecipIn,Conditions,Clouds,dailyrainin,SoftwareType,DateUTC
2013-02-28 00:02:00,48.9,21.8,29.97,WNW,283,0.0,8.0,34,0.00,,,0.00,VWS V13.01,2013-02-28 08:02:00,
2013-02-28 00:07:00,48.5,22.1,29.97,WNW,284,0.0,2.0,35,0.00,,,0.00,VWS V13.01,2013-02-28 08:07:00,
2013-02-28 00:12:00,48.1,21.8,29.97,WNW,283,0.0,4.0,35,0.00,,,0.00,VWS V13.01,2013-02-28 08:12:00,
2013-02-28 00:17:00,47.8,21.5,29.97,NNW,329,5.0,5.0,35,0.00,,,0.00,VWS V13.01,2013-02-28 08:17:00,
2013-02-28 00:22:00,48.3,20.5,29.97,NW,309,0.0,6.0,33,0.00,,,0.00,VWS V13.01,2013-02-28 08:22:00,
2013-02-28 00:27:00,48.9,22.5,29.97,NW,309,0.0,6.0,35,0.00,,,0.00,VWS V13.01,2013-02-28 08:27:00,
2013-02-28 00:32:00,48.7,22.3,29.97,NW,309,1.0,6.0,35,0.00,,,0.00,VWS V13.01,2013-02-28 08:32:00,
2013-02-28 00:37:00,48.6,21.5,29.98,NW,309,0.0,6.0,34,0.00,,,0.00,VWS V13.01,2013-02-28 08:37:00,
2013-02-28 00:42:00,48.9,21.1,29.98,NW,309,4.0,6.0,33,0.00,,,0.00,VWS V13.01,2013-02-28 08:42:00,
2013-02-28 00:47:00,49.3,21.4,29.98,NW,309,0.0,6.0,33,0.00,,,0.00,VWS V13.01,2013-02-28 08:47:00,
2013-02-28 00:52:00,49.5,20.9,29.98,NW,322,4.0,6.0,32,0.00,,,0.00,VWS V13.01,2013-02-28 08:52:00,
2013-02-28 00:57:00,50.4,20.9,29.98,NW,322,0.0,6.0,31,0.00,,,0.00,VWS V13.01,2013-02-28 08:57:00,
2013-02-28 01:02:00,50.5,21.8,29.98,NW,317,4.0,6.0,32,0.00,,,0.00,VWS V13.01,2013-02-28 09:02:00,
2013-02-28 01:07:00,49.6,21.7,29.98,NW,311,9.0,9.0,33,0.00,,,0.00,VWS V13.01,2013-02-28 09:07:00,
2013-02-28 01:12:00,49.7,21.1,29.98,NW,318,0.0,9.0,32,0.00,,,0.00,VWS V13.01,2013-02-28 09:12:00,
2013-02-28 01:17:00,49.6,21.7,29.98,NW,318,3.0,9.0,33,0.00,,,0.00,VWS V13.01,2013-02-28 09:17:00,
2013-02-28 01:22:00,49.2,21.3,29.98,NW,322,1.0,9.0,33,0.00,,,0.00,VWS V13.01,2013-02-28 09:22:00,
2013-02-28 01:27:00,48.7,21.6,29.98,NW,322,0.0,9.0,34,0.00,,,0.00,VWS V13.01,2013-02-28 09:27:00,
2013-02-28 01:32:00,48.2,21.2,29.98,NW,322,0.0,9.0,34,0.00,,,0.00,VWS V13.01,2013-02-28 09:32:00,
2013-02-28 01:37:00,48.1,21.1,29.98,NW,322,2.0,9.0,34,0.00,,,0.00,VWS V13.01,2013-02-28 09:37:00,
2013-02-28 01:42:00,48.0,21.0,29.98,NW,319,4.0,9.0,34,0.00,,,0.00,VWS V13.01,2013-02-28 09:42:00,
2013-02-28 01:47:00,47.9,20.9,29.97,NW,319,1.0,9.0,34,0.00,,,0.00,VWS V13.01,2013-02-28 09:47:00,
2013-02-28 01:52:00,47.8,20.8,29.98,WNW,294,2.0,9.0,34,0.00,,,0.00,VWS V13.01,2013-02-28 09:52:00,
2013-02-28 01:57:00,47.6,20.6,29.97,NW,314,2.0,9.0,34,0.00,,,0.00,VWS V13.01,2013-02-28 09:57:00,
2013-02-28 02:02:00,47.8,21.5,29.97,NW,310,2.0,9.0,35,0.00,,,0.00,VWS V13.01,2013-02-28 10:02:00,
2013-02-28 02:07:00,47.5,21.9,29.97,NW,310,1.0,4.0,36,0.00,,,0.00,VWS V13.01,2013-02-28 10:07:00,
2013-02-28 02:12:00,47.3,21.0,29.97,NW,313,4.0,7.0,35,0.00,,,0.00,VWS V13.01,2013-02-28 10:12:00,
2013-02-28 02:17:00,47.6,21.3,29.97,NW,313,0.0,7.0,35,0.00,,,0.00,VWS V13.01,2013-02-28 10:17:00,
2013-02-28 02:22:00,47.6,21.3,29.97,NW,313,1.0,7.0,35,0.00,,,0.00,VWS V13.01,2013-02-28 10:22:00,
2013-02-28 02:27:00,47.4,21.1,29.97,NW,312,0.0,8.0,35,0.00,,,0.00,VWS V13.01,2013-02-28 10:27:00,
2013-02-28 02:32:00,47.1,20.9,29.97,NW,312,2.0,8.0,35,0.00,,,0.00,VWS V13.01,2013-02-28 10:32:00,
2013-02-28 02:37:00,47.2,21.6,29.97,NW,312,0.0,8.0,36,0.00,,,0.00,VWS V13.01,2013-02-28 10:37:00,
2013-02-28 02:42:00,47.0,22.1,29.96,NW,312,3.0,8.0,37,0.00,,,0.00,VWS V13.01,2013-02-28 10:42:00,
2013-02-28 02:47:00,46.8,21.3,29.96,NW,312,3.0,8.0,36,0.00,,,0.00,VWS V13.01,2013-02-28 10:47:00,
2013-02-28 02:52:00,47.1,20.9,29.96,NW,312,0.0,8.0,35,0.00,,,0.00,VWS V13.01,2013-02-28 10:52:00,
2013-02-28 02:57:00,47.6,19.9,29.96,NW,311,2.0,8.0,33,0.00,,,0.00,VWS V13.01,2013-02-28 10:57:00,
2013-02-28 03:02:00,48.4,21.3,29.97,WNW,292,0.0,8.0,34,0.00,,,0.00,VWS V13.01,2013-02-28 11:02:00,
2013-02-28 03:07:00,48.7,20.2,29.96,WNW,292,0.0,2.0,32,0.00,,,0.00,VWS V13.01,2013-02-28 11:07:00,
2013-02-28 03:12:00,48.8,21.7,29.96,WNW,291,1.0,5.0,34,0.00,,,0.00,VWS V13.01,2013-02-28 11:12:00,
2013-02-28 03:17:00,48.4,22.0,29.96,NW,310,7.0,7.0,35,0.00,,,0.00,VWS V13.01,2013-02-28 11:17:00,
2013-02-28 03:22:00,47.9,21.6,29.96,NW,313,0.0,7.0,35,0.00,,,0.00,VWS V13.01,2013-02-28 11:22:00,
2013-02-28 03:27:00,47.6,21.3,29.96,NW,311,4.0,7.0,35,0.00,,,0.00,VWS V13.01,2013-02-28 11:27:00,
2013-02-28 03:32:00,47.1,21.5,29.96,NW,312,4.0,7.0,36,0.00,,,0.00,VWS V13.01,2013-02-28 11:32:00,
2013-02-28 03:37:00,46.7,21.2,29.96,NW,311,0.0,7.0,36,0.00,,,0.00,VWS V13.01,2013-02-28 11:37:00,
2013-02-28 03:42:00,46.6,21.7,29.96,NW,312,1.0,7.0,37,0.00,,,0.00,VWS V13.01,2013-02-28 11:42:00,
2013-02-28 03:47:00,46.6,21.7,29.96,NW,310,4.0,7.0,37,0.00,,,0.00,VWS V13.01,2013-02-28 11:47:00,
2013-02-28 03:52:00,46.6,21.7,29.96,NW,311,0.0,7.0,37,0.00,,,0.00,VWS V13.01,2013-02-28 11:52:00,
2013-02-28 03:57:00,46.5,21.0,29.96,NW,311,0.0,7.0,36,0.00,,,0.00,VWS V13.01,2013-02-28 11:57:00,
2013-02-28 04:03:00,46.4,20.9,29.96,NW,311,1.0,7.0,36,0.00,,,0.00,VWS V13.01,2013-02-28 12:03:00,
2013-02-28 04:08:00,46.1,20.6,29.96,NW,311,0.0,1.0,36,0.00,,,0.00,VWS V13.01,2013-02-28 12:08:00,
2013-02-28 04:13:00,46.0,21.2,29.96,NW,310,0.0,2.0,37,0.00,,,0.00,VWS V13.01,2013-02-28 12:13:00,
2013-02-28 04:18:00,45.9,21.1,29.96,NW,311,1.0,5.0,37,0.00,,,0.00,VWS V13.01,2013-02-28 12:18:00,
2013-02-28 04:23:00,45.7,20.9,29.95,NW,317,4.0,6.0,37,0.00,,,0.00,VWS V13.01,2013-02-28 12:23:00,
2013-02-28 04:28:00,45.8,21.0,29.96,NW,317,0.0,6.0,37,0.00,,,0.00,VWS V13.01,2013-02-28 12:28:00,
2013-02-28 04:33:00,46.0,21.2,29.96,NW,317,1.0,6.0,37,0.00,,,0.00,VWS V13.01,2013-02-28 12:33:00,
2013-02-28 04:38:00,45.8,21.6,29.96,NW,317,0.0,6.0,38,0.00,,,0.00,VWS V13.01,2013-02-28 12:38:00,
2013-02-28 04:43:00,45.8,20.4,29.96,NW,317,0.0,6.0,36,0.00,,,0.00,VWS V13.01,2013-02-28 12:43:00,
2013-02-28 04:48:00,45.8,21.6,29.97,NW,317,0.0,6.0,38,0.00,,,0.00,VWS V13.01,2013-02-28 12:48:00,
2013-02-28 04:53:00,45.6,20.9,29.97,NW,317,0.0,6.0,37,0.00,,,0.00,VWS V13.01,2013-02-28 12:53:00,
2013-02-28 04:58:00,45.4,21.3,29.97,NW,317,1.0,6.0,38,0.00,,,0.00,VWS V13.01,2013-02-28 12:58:00,
2013-02-28 05:03:00,45.6,20.9,29.97,NW,317,0.0,6.0,37,0.00,,,0.00,VWS V13.01,2013-02-28 13:03:00,
2013-02-28 05:08:00,45.8,21.6,29.97,NW,317,0.0,4.0,38,0.00,,,0.00,VWS V13.01,2013-02-28 13:08:00,
2013-02-28 05:13:00,45.9,20.5,29.97,NW,317,0.0,4.0,36,0.00,,,0.00,VWS V13.01,2013-02-28 13:13:00,
2013-02-28 05:18:00,46.0,19.9,29.97,NW,317,0.0,4.0,35,0.00,,,0.00,VWS V13.01,2013-02-28 13:18:00,
2013-02-28 05:23:00,46.1,21.9,29.98,NW,317,2.0,4.0,38,0.00,,,0.00,VWS V13.01,2013-02-28 13:23:00,
2013-02-28 05:28:00,45.9,21.1,29.98,NW,317,0.0,4.0,37,0.00,,,0.00,VWS V13.01,2013-02-28 13:28:00,
2013-02-28 05:33:00,45.8,21.0,29.98,NW,317,0.0,4.0,37,0.00,,,0.00,VWS V13.01,2013-02-28 13:33:00,
2013-02-28 05:38:00,45.7,20.3,29.98,NW,317,1.0,4.0,36,0.00,,,0.00,VWS V13.01,2013-02-28 13:38:00,
2013-02-28 05:43:00,45.9,20.5,29.98,NW,317,0.0,4.0,36,0.00,,,0.00,VWS V13.01,2013-02-28 13:43:00,
2013-02-28 05:48:00,46.0,21.2,29.98,NW,317,4.0,5.0,37,0.00,,,0.00,VWS V13.01,2013-02-28 13:48:00,
2013-02-28 05:53:00,46.5,21.6,29.99,NW,317,4.0,5.0,37,0.00,,,0.00,VWS V13.01,2013-02-28 13:53:00,
2013-02-28 05:58:00,46.6,21.7,29.98,NW,317,5.0,6.0,37,0.00,,,0.00,VWS V13.01,2013-02-28 13:58:00,
2013-02-28 06:03:00,46.8,21.3,29.99,NW,309,0.0,0.0,36,0.00,,,0.00,VWS V13.01,2013-02-28 14:03:00,
2013-02-28 06:08:00,46.9,21.4,29.98,NW,309,4.0,4.0,36,0.00,,,0.00,VWS V13.01,2013-02-28 14:08:00,
2013-02-28 06:13:00,46.7,21.8,29.99,NW,309,0.0,5.0,37,0.00,,,0.00,VWS V13.01,2013-02-28 14:13:00,
2013-02-28 06:18:00,46.4,22.2,29.99,NW,309,5.0,6.0,38,0.00,,,0.00,VWS V13.01,2013-02-28 14:18:00,
2013-02-28 06:23:00,46.3,21.5,29.99,NW,309,0.0,6.0,37,0.00,,,0.00,VWS V13.01,2013-02-28 14:23:00,
2013-02-28 06:28:00,46.1,21.3,29.99,NW,309,0.0,6.0,37,0.00,,,0.00,VWS V13.01,2013-02-28 14:28:00,
2013-02-28 06:33:00,45.8,21.0,29.99,NW,309,0.0,6.0,37,0.00,,,0.00,VWS V13.01,2013-02-28 14:33:00,
2013-02-28 06:38:00,45.7,21.6,29.99,NW,309,0.0,6.0,38,0.00,,,0.00,VWS V13.01,2013-02-28 14:38:00,
2013-02-28 06:43:00,45.5,21.4,29.99,NW,309,0.0,6.0,38,0.00,,,0.00,VWS V13.01,2013-02-28 14:43:00,
2013-02-28 06:48:00,45.4,20.7,29.99,ENE,59,0.0,6.0,37,0.00,,,0.00,VWS V13.01,2013-02-28 14:48:00,
2013-02-28 06:53:00,45.5,21.4,29.99,ENE,59,0.0,6.0,38,0.00,,,0.00,VWS V13.01,2013-02-28 14:53:00,
2013-02-28 06:58:00,45.6,20.9,29.99,ENE,59,0.0,6.0,37,0.00,,,0.00,VWS V13.01,2013-02-28 14:58:00,
2013-02-28 07:03:00,45.9,21.7,29.99,ENE,59,0.0,0.0,38,0.00,,,0.00,VWS V13.01,2013-02-28 15:03:00,
2013-02-28 07:08:00,46.5,21.6,30.00,ENE,59,0.0,0.0,37,0.00,,,0.00,VWS V13.01,2013-02-28 15:08:00,
2013-02-28 07:13:00,47.1,22.2,30.00,ENE,59,0.0,0.0,37,0.00,,,0.00,VWS V13.01,2013-02-28 15:13:00,
2013-02-28 07:19:00,47.4,22.5,30.00,ENE,59,0.0,4.0,37,0.00,,,0.00,VWS V13.01,2013-02-28 15:19:00,
2013-02-28 07:23:00,47.7,23.4,30.00,NW,319,4.0,4.0,38,0.00,,,0.00,VWS V13.01,2013-02-28 15:23:00,
2013-02-28 07:29:00,48.3,22.6,30.00,NW,319,0.0,5.0,36,0.00,,,0.00,VWS V13.01,2013-02-28 15:29:00,
2013-02-28 07:34:00,49.0,23.2,30.00,NW,319,0.0,5.0,36,0.00,,,0.00,VWS V13.01,2013-02-28 15:34:00,
2013-02-28 07:39:00,49.9,23.4,30.00,NW,319,2.0,5.0,35,0.00,,,0.00,VWS V13.01,2013-02-28 15:39:00,
2013-02-28 07:44:00,50.8,24.8,30.00,NW,318,0.0,5.0,36,0.00,,,0.00,VWS V13.01,2013-02-28 15:44:00,
2013-02-28 07:49:00,52.1,26.0,30.00,NW,319,0.0,5.0,36,0.00,,,0.00,VWS V13.01,2013-02-28 15:49:00,
2013-02-28 07:54:00,53.1,26.9,30.00,NW,319,0.0,5.0,36,0.00,,,0.00,VWS V13.01,2013-02-28 15:54:00,
2013-02-28 07:59:00,53.9,27.6,30.00,NW,319,0.0,5.0,36,0.00,,,0.00,VWS V13.01,2013-02-28 15:59:00,
2013-02-28 08:04:00,54.5,26.7,30.01,NW,318,0.0,0.0,34,0.00,,,0.00,VWS V13.01,2013-02-28 16:04:00,
2013-02-28 08:09:00,55.2,26.6,30.01,NW,319,0.0,0.0,33,0.00,,,0.00,VWS V13.01,2013-02-28 16:09:00,
2013-02-28 08:14:00,56.3,26.1,30.01,East,101,0.0,1.0,31,0.00,,,0.00,VWS V13.01,2013-02-28 16:14:00,
2013-02-28 08:19:00,57.4,28.5,30.01,SSW,211,0.0,1.0,33,0.00,,,0.00,VWS V13.01,2013-02-28 16:19:00,
2013-02-28 08:24:00,58.3,26.2,30.01,SSW,211,0.0,1.0,29,0.00,,,0.00,VWS V13.01,2013-02-28 16:24:00,
2013-02-28 08:29:00,59.0,26.0,30.01,SSW,210,0.0,1.0,28,0.00,,,0.00,VWS V13.01,2013-02-28 16:29:00,
2013-02-28 08:34:00,59.8,25.8,30.01,South,175,0.0,1.0,27,0.00,,,0.00,VWS V13.01,2013-02-28 16:34:00,
2013-02-28 08:39:00,60.8,26.6,30.01,South,175,0.0,3.0,27,0.00,,,0.00,VWS V13.01,2013-02-28 16:39:00,
2013-02-28 08:44:00,61.5,28.1,30.01,South,175,1.0,4.0,28,0.00,,,0.00,VWS V13.01,2013-02-28 16:44:00,
2013-02-28 08:49:00,61.9,26.7,30.01,South,175,2.0,5.0,26,0.00,,,0.00,VWS V13.01,2013-02-28 16:49:00,
2013-02-28 08:54:00,62.3,28.8,30.01,SSE,153,3.0,5.0,28,0.00,,,0.00,VWS V13.01,2013-02-28 16:54:00,
2013-02-28 08:59:00,62.5,29.0,30.02,SSE,153,2.0,6.0,28,0.00,,,0.00,VWS V13.01,2013-02-28 16:59:00,
2013-02-28 09:04:00,62.5,28.1,30.02,SSE,152,0.0,5.0,27,0.00,,,0.00,VWS V13.01,2013-02-28 17:04:00,
2013-02-28 09:09:00,62.9,30.2,30.01,SSE,152,0.0,5.0,29,0.00,,,0.00,VWS V13.01,2013-02-28 17:09:00,
2013-02-28 09:14:00,63.2,29.6,30.01,SSE,152,2.0,5.0,28,0.00,,,0.00,VWS V13.01,2013-02-28 17:14:00,
2013-02-28 09:19:00,63.5,29.8,30.01,SSE,152,4.0,5.0,28,0.00,,,0.00,VWS V13.01,2013-02-28 17:19:00,
2013-02-28 09:24:00,64.1,30.4,30.01,SSE,152,2.0,5.0,28,0.00,,,0.00,VWS V13.01,2013-02-28 17:24:00,
2013-02-28 09:29:00,64.6,29.9,30.01,SSE,153,0.0,5.0,27,0.00,,,0.00,VWS V13.01,2013-02-28 17:29:00,
2013-02-28 09:34:00,65.1,30.3,30.01,SSE,153,2.0,5.0,27,0.00,,,0.00,VWS V13.01,2013-02-28 17:34:00,
2013-02-28 09:39:00,65.8,30.9,30.01,SSE,153,4.0,5.0,27,0.00,,,0.00,VWS V13.01,2013-02-28 17:39:00,
2013-02-28 09:44:00,66.3,30.4,30.01,SSE,152,5.0,5.0,26,0.00,,,0.00,VWS V13.01,2013-02-28 17:44:00,
2013-02-28 09:49:00,66.7,30.8,30.01,SSE,153,0.0,6.0,26,0.00,,,0.00,VWS V13.01,2013-02-28 17:49:00,
2013-02-28 09:54:00,67.0,31.0,30.01,SE,142,5.0,6.0,26,0.00,,,0.00,VWS V13.01,2013-02-28 17:54:00,
2013-02-28 09:59:00,67.3,31.3,30.01,SE,133,4.0,8.0,26,0.00,,,0.00,VWS V13.01,2013-02-28 17:59:00,
2013-02-28 10:04:00,67.9,30.8,30.01,ESE,103,1.0,7.0,25,0.00,,,0.00,VWS V13.01,2013-02-28 18:04:00,
2013-02-28 10:09:00,68.2,31.1,30.00,ESE,104,2.0,7.0,25,0.00,,,0.00,VWS V13.01,2013-02-28 18:09:00,
2013-02-28 10:14:00,68.5,31.3,30.01,SE,142,5.0,9.0,25,0.00,,,0.00,VWS V13.01,2013-02-28 18:14:00,
2013-02-28 10:19:00,68.9,30.6,30.00,SSE,153,3.0,9.0,24,0.00,,,0.00,VWS V13.01,2013-02-28 18:19:00,
2013-02-28 10:24:00,69.2,29.9,30.00,SE,146,5.0,9.0,23,0.00,,,0.00,VWS V13.01,2013-02-28 18:24:00,
2013-02-28 10:29:00,69.4,30.0,30.00,SSE,152,6.0,9.0,23,0.00,,,0.00,VWS V13.01,2013-02-28 18:29:00,
2013-02-28 10:34:00,69.7,29.2,30.00,SSE,148,5.0,9.0,22,0.00,,,0.00,VWS V13.01,2013-02-28 18:34:00,
2013-02-28 10:40:00,70.4,26.2,30.00,SSE,148,4.0,9.0,19,0.00,,,0.00,VWS V13.01,2013-02-28 18:40:00,
2013-02-28 10:44:00,70.8,26.5,30.00,SSE,148,2.0,9.0,19,0.00,,,0.00,VWS V13.01,2013-02-28 18:44:00,
2013-02-28 10:49:00,71.1,28.0,30.00,SSE,149,2.0,9.0,20,0.00,,,0.00,VWS V13.01,2013-02-28 18:49:00,
2013-02-28 10:55:00,71.5,25.8,30.00,SSE,149,2.0,9.0,18,0.00,,,0.00,VWS V13.01,2013-02-28 18:55:00,
2013-02-28 11:00:00,71.8,26.0,30.00,East,92,1.0,9.0,18,0.00,,,0.00,VWS V13.01,2013-02-28 19:00:00,
2013-02-28 11:05:00,71.9,24.8,30.00,East,94,0.0,5.0,17,0.00,,,0.00,VWS V13.01,2013-02-28 19:05:00,
2013-02-28 11:10:00,72.1,26.3,30.00,East,94,2.0,5.0,18,0.00,,,0.00,VWS V13.01,2013-02-28 19:10:00,
2013-02-28 11:15:00,72.6,26.7,30.00,ESE,115,0.0,6.0,18,0.00,,,0.00,VWS V13.01,2013-02-28 19:15:00,
2013-02-28 11:20:00,73.0,25.6,29.99,SSE,168,5.0,6.0,17,0.00,,,0.00,VWS V13.01,2013-02-28 19:20:00,
2013-02-28 11:25:00,73.3,25.9,29.99,SW,226,4.0,6.0,17,0.00,,,0.00,VWS V13.01,2013-02-28 19:25:00,
2013-02-28 11:30:00,73.6,27.5,29.99,SW,222,0.0,6.0,18,0.00,,,0.00,VWS V13.01,2013-02-28 19:30:00,
2013-02-28 11:35:00,73.9,26.4,29.98,WSW,244,4.0,6.0,17,0.00,,,0.00,VWS V13.01,2013-02-28 19:35:00,
2013-02-28 11:40:00,74.0,27.9,29.98,SE,138,5.0,8.0,18,0.00,,,0.00,VWS V13.01,2013-02-28 19:40:00,
2013-02-28 11:45:00,73.9,29.1,29.98,SE,138,3.0,8.0,19,0.00,,,0.00,VWS V13.01,2013-02-28 19:45:00,
2013-02-28 11:50:00,74.1,29.2,29.98,SE,128,4.0,8.0,19,0.00,,,0.00,VWS V13.01,2013-02-28 19:50:00,
2013-02-28 11:55:00,74.2,28.0,29.98,SE,140,0.0,8.0,18,0.00,,,0.00,VWS V13.01,2013-02-28 19:55:00,
2013-02-28 12:00:00,74.4,28.2,29.97,SSE,162,0.0,8.0,18,0.00,,,0.00,VWS V13.01,2013-02-28 20:00:00,
2013-02-28 12:05:00,74.4,28.2,29.97,North,360,1.0,6.0,18,0.00,,,0.00,VWS V13.01,2013-02-28 20:05:00,
2013-02-28 12:10:00,74.6,28.3,29.97,North,360,0.0,6.0,18,0.00,,,0.00,VWS V13.01,2013-02-28 20:10:00,
2013-02-28 12:15:00,75.1,30.1,29.97,East,97,2.0,6.0,19,0.00,,,0.00,VWS V13.01,2013-02-28 20:15:00,
2013-02-28 12:20:00,75.7,30.6,29.96,East,97,1.0,6.0,19,0.00,,,0.00,VWS V13.01,2013-02-28 20:20:00,
2013-02-28 12:25:00,75.9,29.4,29.96,South,169,4.0,12.0,18,0.00,,,0.00,VWS V13.01,2013-02-28 20:25:00,
2013-02-28 12:30:00,75.7,29.2,29.96,South,184,1.0,12.0,18,0.00,,,0.00,VWS V13.01,2013-02-28 20:30:00,
2013-02-28 12:35:00,75.8,30.6,29.96,ESE,103,5.0,12.0,19,0.00,,,0.00,VWS V13.01,2013-02-28 20:35:00,
2013-02-28 12:40:00,75.8,29.3,29.95,ESE,102,4.0,12.0,18,0.00,,,0.00,VWS V13.01,2013-02-28 20:40:00,
2013-02-28 12:45:00,75.6,29.1,29.95,SSE,160,1.0,12.0,18,0.00,,,0.00,VWS V13.01,2013-02-28 20:45:00,
2013-02-28 12:50:00,75.8,30.6,29.95,SE,129,11.0,12.0,19,0.00,,,0.00,VWS V13.01,2013-02-28 20:50:00,
2013-02-28 12:55:00,75.6,30.5,29.95,East,98,3.0,12.0,19,0.00,,,0.00,VWS V13.01,2013-02-28 20:55:00,
2013-02-28 13:00:00,76.0,29.5,29.95,SE,132,9.0,12.0,18,0.00,,,0.00,VWS V13.01,2013-02-28 21:00:00,
2013-02-28 13:05:00,75.8,29.3,29.95,SSE,165,9.0,9.0,18,0.00,,,0.00,VWS V13.01,2013-02-28 21:05:00,
2013-02-28 13:10:00,75.8,29.3,29.95,SSE,156,0.0,12.0,18,0.00,,,0.00,VWS V13.01,2013-02-28 21:10:00,
2013-02-28 13:15:00,76.5,29.9,29.94,SSW,205,0.0,12.0,18,0.00,,,0.00,VWS V13.01,2013-02-28 21:15:00,
2013-02-28 13:20:00,76.6,30.0,29.94,SSE,150,5.0,12.0,18,0.00,,,0.00,VWS V13.01,2013-02-28 21:20:00,
2013-02-28 13:25:00,76.5,29.9,29.94,SE,141,2.0,12.0,18,0.00,,,0.00,VWS V13.01,2013-02-28 21:25:00,
2013-02-28 13:30:00,76.7,28.6,29.94,SSE,155,0.0,12.0,17,0.00,,,0.00,VWS V13.01,2013-02-28 21:30:00,
2013-02-28 13:35:00,76.9,28.8,29.94,SE,133,0.0,12.0,17,0.00,,,0.00,VWS V13.01,2013-02-28 21:35:00,
2013-02-28 13:40:00,77.3,29.1,29.93,SSE,152,4.0,12.0,17,0.00,,,0.00,VWS V13.01,2013-02-28 21:40:00,
2013-02-28 13:45:00,77.5,29.3,29.93,SW,225,3.0,12.0,17,0.00,,,0.00,VWS V13.01,2013-02-28 21:45:00,
2013-02-28 13:50:00,77.8,29.5,29.93,ESE,117,3.0,12.0,17,0.00,,,0.00,VWS V13.01,2013-02-28 21:50:00,
2013-02-28 13:55:00,77.9,29.6,29.93,SW,219,6.0,12.0,17,0.00,,,0.00,VWS V13.01,2013-02-28 21:55:00,
2013-02-28 14:00:00,77.9,28.1,29.93,West,271,5.0,12.0,16,0.00,,,0.00,VWS V13.01,2013-02-28 22:00:00,
2013-02-28 14:05:00,78.0,29.7,29.93,NW,306,4.0,9.0,17,0.00,,,0.00,VWS V13.01,2013-02-28 22:05:00,
2013-02-28 14:10:00,78.1,29.8,29.93,West,279,1.0,10.0,17,0.00,,,0.00,VWS V13.01,2013-02-28 22:10:00,
2013-02-28 14:15:00,78.3,29.9,29.92,West,267,7.0,10.0,17,0.00,,,0.00,VWS V13.01,2013-02-28 22:15:00,
2013-02-28 14:20:00,78.5,31.5,29.92,West,267,9.0,13.0,18,0.00,,,0.00,VWS V13.01,2013-02-28 22:20:00,
2013-02-28 14:25:00,78.4,30.0,29.92,WNW,284,4.0,13.0,17,0.00,,,0.00,VWS V13.01,2013-02-28 22:25:00,
2013-02-28 14:30:00,78.0,29.7,29.92,NNW,337,4.0,13.0,17,0.00,,,0.00,VWS V13.01,2013-02-28 22:30:00,
2013-02-28 14:35:00,77.9,29.6,29.92,NNW,327,2.0,13.0,17,0.00,,,0.00,VWS V13.01,2013-02-28 22:35:00,
2013-02-28 14:40:00,78.4,28.5,29.92,NNW,332,0.0,13.0,16,0.00,,,0.00,VWS V13.01,2013-02-28 22:40:00,
2013-02-28 14:45:00,78.9,28.9,29.92,NNW,333,0.0,13.0,16,0.00,,,0.00,VWS V13.01,2013-02-28 22:45:00,
2013-02-28 14:50:00,79.2,29.2,29.92,SSE,160,7.0,13.0,16,0.00,,,0.00,VWS V13.01,2013-02-28 22:50:00,
2013-02-28 14:55:00,79.1,29.1,29.92,SE,129,1.0,13.0,16,0.00,,,0.00,VWS V13.01,2013-02-28 22:55:00,
2013-02-28 15:00:00,78.7,30.3,29.92,SSE,163,9.0,13.0,17,0.00,,,0.00,VWS V13.01,2013-02-28 23:00:00,
2013-02-28 15:05:00,78.3,29.9,29.92,SSE,157,5.0,9.0,17,0.00,,,0.00,VWS V13.01,2013-02-28 23:05:00,
2013-02-28 15:10:00,78.4,30.0,29.92,SE,141,1.0,9.0,17,0.00,,,0.00,VWS V13.01,2013-02-28 23:10:00,
2013-02-28 15:15:00,78.7,30.3,29.92,SE,126,4.0,9.0,17,0.00,,,0.00,VWS V13.01,2013-02-28 23:15:00,
2013-02-28 15:20:00,78.7,30.3,29.92,ESE,105,7.0,9.0,17,0.00,,,0.00,VWS V13.01,2013-02-28 23:20:00,
2013-02-28 15:26:00,78.5,30.1,29.92,ESE,119,0.0,9.0,17,0.00,,,0.00,VWS V13.01,2013-02-28 23:26:00,
2013-02-28 15:30:00,78.3,28.5,29.92,ESE,102,0.0,9.0,16,0.00,,,0.00,VWS V13.01,2013-02-28 23:30:00,
2013-02-28 15:35:00,78.5,30.1,29.91,ESE,103,2.0,9.0,17,0.00,,,0.00,VWS V13.01,2013-02-28 23:35:00,
2013-02-28 15:41:00,78.9,31.8,29.92,SE,144,7.0,10.0,18,0.00,,,0.00,VWS V13.01,2013-02-28 23:41:00,
2013-02-28 15:46:00,78.4,31.4,29.92,East,91,5.0,14.0,18,0.00,,,0.00,VWS V13.01,2013-02-28 23:46:00,
2013-02-28 15:51:00,77.4,32.0,29.91,SSE,153,2.0,14.0,19,0.00,,,0.00,VWS V13.01,2013-02-28 23:51:00,
2013-02-28 15:56:00,76.9,32.8,29.91,SSE,154,7.0,14.0,20,0.00,,,0.00,VWS V13.01,2013-02-28 23:56:00,
2013-02-28 16:01:00,76.4,32.4,29.91,SSE,152,1.0,14.0,20,0.00,,,0.00,VWS V13.01,2013-03-01 00:01:00,
2013-02-28 16:06:00,75.9,33.2,29.91,SSE,152,8.0,11.0,21,0.00,,,0.00,VWS V13.01,2013-03-01 00:06:00,
2013-02-28 16:11:00,75.2,32.6,29.91,SE,144,7.0,12.0,21,0.00,,,0.00,VWS V13.01,2013-03-01 00:11:00,
2013-02-28 16:16:00,74.9,33.5,29.92,SSE,160,4.0,12.0,22,0.00,,,0.00,VWS V13.01,2013-03-01 00:16:00,
2013-02-28 16:21:00,74.8,32.3,29.92,ESE,120,6.0,12.0,21,0.00,,,0.00,VWS V13.01,2013-03-01 00:21:00,
2013-02-28 16:26:00,74.7,33.4,29.92,ESE,117,8.0,12.0,22,0.00,,,0.00,VWS V13.01,2013-03-01 00:26:00,
2013-02-28 16:31:00,74.3,33.0,29.92,SE,136,5.0,12.0,22,0.00,,,0.00,VWS V13.01,2013-03-01 00:31:00,
2013-02-28 16:36:00,74.2,34.1,29.92,SE,132,4.0,12.0,23,0.00,,,0.00,VWS V13.01,2013-03-01 00:36:00,
2013-02-28 16:41:00,74.1,32.9,29.92,ESE,102,5.0,12.0,22,0.00,,,0.00,VWS V13.01,2013-03-01 00:41:00,
2013-02-28 16:46:00,74.0,32.8,29.92,SE,128,5.0,12.0,22,0.00,,,0.00,VWS V13.01,2013-03-01 00:46:00,
2013-02-28 16:51:00,73.9,32.7,29.92,ESE,123,4.0,12.0,22,0.00,,,0.00,VWS V13.01,2013-03-01 00:51:00,
2013-02-28 16:56:00,73.7,33.6,29.92,ESE,117,3.0,12.0,23,0.00,,,0.00,VWS V13.01,2013-03-01 00:56:00,
2013-02-28 17:01:00,73.2,36.3,29.92,SE,135,8.0,12.0,26,0.00,,,0.00,VWS V13.01,2013-03-01 01:01:00,
2013-02-28 17:06:00,72.6,36.7,29.92,SE,125,2.0,8.0,27,0.00,,,0.00,VWS V13.01,2013-03-01 01:06:00,
2013-02-28 17:11:00,72.1,37.2,29.93,SE,125,2.0,8.0,28,0.00,,,0.00,VWS V13.01,2013-03-01 01:11:00,
2013-02-28 17:16:00,71.7,36.0,29.93,SE,125,4.0,8.0,27,0.00,,,0.00,VWS V13.01,2013-03-01 01:16:00,
2013-02-28 17:21:00,71.3,35.6,29.93,SE,125,3.0,8.0,27,0.00,,,0.00,VWS V13.01,2013-03-01 01:21:00,
2013-02-28 17:26:00,70.6,35.9,29.93,SE,125,0.0,8.0,28,0.00,,,0.00,VWS V13.01,2013-03-01 01:26:00,
2013-02-28 17:31:00,70.1,36.4,29.94,SE,125,0.0,8.0,29,0.00,,,0.00,VWS V13.01,2013-03-01 01:31:00,
2013-02-28 17:36:00,69.5,37.6,29.94,SE,125,0.0,8.0,31,0.00,,,0.00,VWS V13.01,2013-03-01 01:36:00,
2013-02-28 17:41:00,68.8,37.0,29.95,SE,125,0.0,8.0,31,0.00,,,0.00,VWS V13.01,2013-03-01 01:41:00,
2013-02-28 17:46:00,68.2,35.6,29.95,SE,125,0.0,8.0,30,0.00,,,0.00,VWS V13.01,2013-03-01 01:46:00,
2013-02-28 17:51:00,67.4,35.7,29.95,SE,125,2.0,8.0,31,0.00,,,0.00,VWS V13.01,2013-03-01 01:51:00,
2013-02-28 17:56:00,66.6,35.0,29.96,SE,125,1.0,8.0,31,0.00,,,0.00,VWS V13.01,2013-03-01 01:56:00,
2013-02-28 18:01:00,66.0,35.3,29.96,SE,125,0.0,8.0,32,0.00,,,0.00,VWS V13.01,2013-03-01 02:01:00,
2013-02-28 18:06:00,65.3,36.2,29.96,SE,125,0.0,4.0,34,0.00,,,0.00,VWS V13.01,2013-03-01 02:06:00,
2013-02-28 18:11:00,64.7,35.0,29.96,SE,125,0.0,4.0,33,0.00,,,0.00,VWS V13.01,2013-03-01 02:11:00,
2013-02-28 18:16:00,64.1,34.4,29.97,SE,125,0.0,4.0,33,0.00,,,0.00,VWS V13.01,2013-03-01 02:16:00,
2013-02-28 18:21:00,63.8,33.4,29.97,SE,125,0.0,4.0,32,0.00,,,0.00,VWS V13.01,2013-03-01 02:21:00,
2013-02-28 18:26:00,63.6,33.2,29.97,SE,125,0.0,4.0,32,0.00,,,0.00,VWS V13.01,2013-03-01 02:26:00,
2013-02-28 18:31:00,63.2,33.6,29.97,SE,125,0.0,4.0,33,0.00,,,0.00,VWS V13.01,2013-03-01 02:31:00,
2013-02-28 18:36:00,62.5,33.0,29.97,SE,125,0.0,4.0,33,0.00,,,0.00,VWS V13.01,2013-03-01 02:36:00,
2013-02-28 18:41:00,61.9,33.2,29.97,SE,125,0.0,4.0,34,0.00,,,0.00,VWS V13.01,2013-03-01 02:41:00,
2013-02-28 18:46:00,61.3,33.4,29.97,SE,125,0.0,4.0,35,0.00,,,0.00,VWS V13.01,2013-03-01 02:46:00,
2013-02-28 18:51:00,60.5,32.7,29.97,SE,125,0.0,4.0,35,0.00,,,0.00,VWS V13.01,2013-03-01 02:51:00,
2013-02-28 18:56:00,60.1,32.4,29.98,SE,125,0.0,4.0,35,0.00,,,0.00,VWS V13.01,2013-03-01 02:56:00,
2013-02-28 19:01:00,59.8,31.4,29.98,SE,125,0.0,4.0,34,0.00,,,0.00,VWS V13.01,2013-03-01 03:01:00,
2013-02-28 19:06:00,59.7,31.3,29.97,SE,125,0.0,0.0,34,0.00,,,0.00,VWS V13.01,2013-03-01 03:06:00,
2013-02-28 19:11:00,59.8,31.4,29.97,SE,125,0.0,0.0,34,0.00,,,0.00,VWS V13.01,2013-03-01 03:11:00,
2013-02-28 19:16:00,59.5,30.4,29.97,SE,125,0.0,2.0,33,0.00,,,0.00,VWS V13.01,2013-03-01 03:16:00,
2013-02-28 19:21:00,59.0,29.2,29.98,SE,125,0.0,4.0,32,0.00,,,0.00,VWS V13.01,2013-03-01 03:21:00,
2013-02-28 19:27:00,59.0,31.4,29.98,SE,125,2.0,5.0,35,0.00,,,0.00,VWS V13.01,2013-03-01 03:27:00,
2013-02-28 19:32:00,58.4,30.2,29.99,SE,125,3.0,5.0,34,0.00,,,0.00,VWS V13.01,2013-03-01 03:32:00,
2013-02-28 19:37:00,58.5,33.0,29.98,SE,125,1.0,5.0,38,0.00,,,0.00,VWS V13.01,2013-03-01 03:37:00,
2013-02-28 19:42:00,58.5,30.2,29.98,SE,125,0.0,5.0,34,0.00,,,0.00,VWS V13.01,2013-03-01 03:42:00,
2013-02-28 19:47:00,58.4,30.9,29.99,SE,125,0.0,5.0,35,0.00,,,0.00,VWS V13.01,2013-03-01 03:47:00,
2013-02-28 19:52:00,58.1,30.6,29.99,SE,125,0.0,5.0,35,0.00,,,0.00,VWS V13.01,2013-03-01 03:52:00,
2013-02-28 19:57:00,57.9,30.4,29.99,SE,125,0.0,5.0,35,0.00,,,0.00,VWS V13.01,2013-03-01 03:57:00,
2013-02-28 20:02:00,57.7,31.0,29.99,SE,125,0.0,5.0,36,0.00,,,0.00,VWS V13.01,2013-03-01 04:02:00,
2013-02-28 20:07:00,57.2,30.5,29.99,SE,125,2.0,4.0,36,0.00,,,0.00,VWS V13.01,2013-03-01 04:07:00,
2013-02-28 20:12:00,56.8,29.5,29.99,SE,125,0.0,4.0,35,0.00,,,0.00,VWS V13.01,2013-03-01 04:12:00,
2013-02-28 20:17:00,56.5,29.9,29.99,SE,125,0.0,4.0,36,0.00,,,0.00,VWS V13.01,2013-03-01 04:17:00,
2013-02-28 20:22:00,56.6,28.6,29.99,SE,125,4.0,4.0,34,0.00,,,0.00,VWS V13.01,2013-03-01 04:22:00,
2013-02-28 20:27:00,57.1,29.0,29.99,NNW,329,0.0,5.0,34,0.00,,,0.00,VWS V13.01,2013-03-01 04:27:00,
2013-02-28 20:32:00,57.2,28.4,29.99,NNW,329,0.0,5.0,33,0.00,,,0.00,VWS V13.01,2013-03-01 04:32:00,
2013-02-28 20:37:00,57.1,29.7,29.99,NNW,329,0.0,5.0,35,0.00,,,0.00,VWS V13.01,2013-03-01 04:37:00,
2013-02-28 20:42:00,56.7,29.4,29.99,NW,315,0.0,5.0,35,0.00,,,0.00,VWS V13.01,2013-03-01 04:42:00,
2013-02-28 20:47:00,56.5,28.5,29.99,NW,314,4.0,5.0,34,0.00,,,0.00,VWS V13.01,2013-03-01 04:47:00,
2013-02-28 20:52:00,56.5,27.0,29.99,NW,305,1.0,6.0,32,0.00,,,0.00,VWS V13.01,2013-03-01 04:52:00,
2013-02-28 20:57:00,56.7,27.9,29.99,WNW,303,1.0,6.0,33,0.00,,,0.00,VWS V13.01,2013-03-01 04:57:00,
2013-02-28 21:00:00,56.8,28.0,30.00,WSW,241,2.0,6.0,33,0.00,,,0.00,VWS V13.01,2013-03-01 05:00:00,
2013-02-28 21:05:00,56.9,28.8,30.00,WSW,254,0.0,0.0,34,0.00,,,0.00,VWS V13.01,2013-03-01 05:05:00,
2013-02-28 21:06:00,56.9,28.8,30.00,WSW,254,1.0,2.0,34,0.00,,,0.00,VWS V13.01,2013-03-01 05:06:00,
2013-02-28 21:11:00,57.3,27.7,30.00,NNE,26,0.0,5.0,32,0.00,,,0.00,VWS V13.01,2013-03-01 05:11:00,
2013-02-28 21:16:00,57.5,27.9,30.00,NNE,26,0.0,5.0,32,0.00,,,0.00,VWS V13.01,2013-03-01 05:16:00,
2013-02-28 21:21:00,57.7,27.3,30.00,NNE,26,2.0,5.0,31,0.00,,,0.00,VWS V13.01,2013-03-01 05:21:00,
2013-02-28 21:26:00,57.9,27.5,30.00,NNE,26,0.0,5.0,31,0.00,,,0.00,VWS V13.01,2013-03-01 05:26:00,
2013-02-28 21:31:00,57.5,27.9,30.00,NNE,26,0.0,5.0,32,0.00,,,0.00,VWS V13.01,2013-03-01 05:31:00,
2013-02-28 21:36:00,57.5,27.1,30.00,NNE,25,1.0,5.0,31,0.00,,,0.00,VWS V13.01,2013-03-01 05:36:00,
2013-02-28 21:41:00,57.8,28.2,30.00,NNE,26,1.0,5.0,32,0.00,,,0.00,VWS V13.01,2013-03-01 05:41:00,
2013-02-28 21:46:00,57.6,27.2,30.00,NNE,26,0.0,5.0,31,0.00,,,0.00,VWS V13.01,2013-03-01 05:46:00,
2013-02-28 21:51:00,57.7,27.3,30.00,NNE,25,0.0,5.0,31,0.00,,,0.00,VWS V13.01,2013-03-01 05:51:00,
2013-02-28 21:56:00,57.9,27.5,30.01,NNE,26,0.0,5.0,31,0.00,,,0.00,VWS V13.01,2013-03-01 05:56:00,
2013-02-28 22:01:00,58.1,26.9,30.00,NNE,25,0.0,5.0,30,0.00,,,0.00,VWS V13.01,2013-03-01 06:01:00,
2013-02-28 22:06:00,57.8,27.4,30.01,NNE,25,1.0,1.0,31,0.00,,,0.00,VWS V13.01,2013-03-01 06:06:00,
2013-02-28 22:11:00,57.5,27.9,30.00,NNE,22,1.0,5.0,32,0.00,,,0.00,VWS V13.01,2013-03-01 06:11:00,
2013-02-28 22:16:00,57.1,27.5,30.00,NNE,22,0.0,5.0,32,0.00,,,0.00,VWS V13.01,2013-03-01 06:16:00,
2013-02-28 22:21:00,56.6,27.1,30.01,NNE,22,0.0,5.0,32,0.00,,,0.00,VWS V13.01,2013-03-01 06:21:00,
2013-02-28 22:26:00,56.4,26.9,30.01,NNE,22,0.0,5.0,32,0.00,,,0.00,VWS V13.01,2013-03-01 06:26:00,
2013-02-28 22:32:00,56.2,27.5,30.01,NNE,22,0.0,5.0,33,0.00,,,0.00,VWS V13.01,2013-03-01 06:32:00,
2013-02-28 22:37:00,56.0,27.3,30.01,NNE,22,0.0,5.0,33,0.00,,,0.00,VWS V13.01,2013-03-01 06:37:00,
2013-02-28 22:42:00,56.0,27.3,30.00,NNE,22,0.0,5.0,33,0.00,,,0.00,VWS V13.01,2013-03-01 06:42:00,
2013-02-28 22:47:00,55.9,28.0,30.00,NE,40,0.0,5.0,34,0.00,,,0.00,VWS V13.01,2013-03-01 06:47:00,
2013-02-28 22:52:00,55.3,26.7,30.00,NE,48,0.0,5.0,33,0.00,,,0.00,VWS V13.01,2013-03-01 06:52:00,
2013-02-28 22:57:00,55.3,26.0,30.00,NE,48,0.0,5.0,32,0.00,,,0.00,VWS V13.01,2013-03-01 06:57:00,
2013-02-28 23:02:00,55.7,25.5,30.00,NE,48,0.0,5.0,31,0.00,,,0.00,VWS V13.01,2013-03-01 07:02:00,
2013-02-28 23:07:00,55.8,25.6,30.00,NE,48,0.0,2.0,31,0.00,,,0.00,VWS V13.01,2013-03-01 07:07:00,
2013-02-28 23:12:00,55.8,25.6,30.00,NE,48,0.0,2.0,31,0.00,,,0.00,VWS V13.01,2013-03-01 07:12:00,
2013-02-28 23:17:00,55.9,26.5,30.01,NE,48,1.0,2.0,32,0.00,,,0.00,VWS V13.01,2013-03-01 07:17:00,
2013-02-28 23:22:00,56.0,25.8,30.00,NE,48,5.0,5.0,31,0.00,,,0.00,VWS V13.01,2013-03-01 07:22:00,
2013-02-28 23:27:00,56.1,25.9,30.00,NE,49,0.0,5.0,31,0.00,,,0.00,VWS V13.01,2013-03-01 07:27:00,
2013-02-28 23:32:00,56.0,26.6,30.00,NE,48,0.0,5.0,32,0.00,,,0.00,VWS V13.01,2013-03-01 07:32:00,
2013-02-28 23:37:00,55.9,26.5,30.00,NE,49,0.0,5.0,32,0.00,,,0.00,VWS V13.01,2013-03-01 07:37:00,
2013-02-28 23:42:00,55.8,26.4,30.00,NE,48,0.0,5.0,32,0.00,,,0.00,VWS V13.01,2013-03-01 07:42:00,
2013-02-28 23:47:00,55.8,26.4,30.00,NE,48,0.0,5.0,32,0.00,,,0.00,VWS V13.01,2013-03-01 07:47:00,
2013-02-28 23:52:00,55.9,25.7,30.00,NE,49,0.0,5.0,31,0.00,,,0.00,VWS V13.01,2013-03-01 07:52:00,
2013-02-28 23:57:00,55.8,26.4,30.00,NE,49,0.0,5.0,32,0.00,,,0.00,VWS V13.01,2013-03-01 07:57:00,